EW1233 Weather Reports


time (UTC)temp
C
wind
direction
speed
KPH
gust
KPH
rain 1hr
cm
rain 24hr
cm
rain mn
cm
humidity
%
barometer
mb
20260906204539 21 145 0.0 8.0 0.00 1.04 0.97 97 1009.3
20260906203111 21 143 0.0 12.9 0.03 1.04 0.97 97 1009.1
20260906201550 20 318 1.6 6.4 0.03 1.04 0.97 97 1009.2
20260906200015 19 318 3.2 6.4 0.05 1.04 0.97 96 1009.3
20260906194547 19 318 4.8 8.0 0.08 1.04 0.97 96 1010.2
20260906193108 19 318 0.0 9.7 0.05 1.02 0.94 96 1011.1
20260906191529 19 315 4.8 9.7 0.05 1.02 0.94 96 1011.7
20260906190029 19 315 3.2 6.4 0.05 0.99 0.91 96 1011.7
20260906184529 19 315 1.6 8.0 0.48 0.97 0.89 96 1011.7
20260906183036 19 290 8.0 20.9 0.86 0.97 0.89 95 1012.3
20260906181529 20 232 4.8 16.1 0.86 0.97 0.89 95 1012.8
20260906180036 19 231 11.3 35.4 0.84 0.94 0.86 95 1011.7
20260906174533 20 220 37.0 49.9 0.36 0.46 0.38 92 1011.8
20260906173022 22 210 16.1 38.6 0.00 0.10 0.03 93 1012.3
20260906171515 22 179 17.7 35.4 0.00 0.10 0.03 94 1011.7
20260906170013 23 173 16.1 29.0 0.00 0.10 0.03 94 1011.1
20260906164523 23 184 14.5 24.1 0.03 0.10 0.03 95 1011.4
20260906163021 23 146 17.7 25.7 0.03 0.10 0.03 94 1011.4
20260906161511 23 180 11.3 30.6 0.03 0.10 0.03 94 1011.5
20260906160009 23 186 12.9 24.1 0.03 0.10 0.03 94 1011.3
20260906154510 22 161 19.3 30.6 0.00 0.08 0.00 94 1011.3
20260906153003 23 194 12.9 19.3 0.00 0.08 0.00 93 1011.1
20260906151559 23 167 8.0 16.1 0.00 0.08 0.00 94 1010.6
20260906144603 22 121 4.8 14.5 0.00 0.08 0.00 94 1010.1
20260906143051 22 122 8.0 19.3 0.00 0.08 0.00 94 1010.1
20260906141548 22 97 3.2 14.5 0.00 0.08 0.00 95 1009.9
20260906140045 21 219 4.8 17.7 0.00 0.08 0.00 95 1010.7
20260906134543 21 83 3.2 16.1 0.00 0.08 0.00 94 1009.7
20260906133043 21 92 1.6 11.3 0.00 0.08 0.00 94 1009.8
20260906131542 21 93 4.8 11.3 0.00 0.08 0.00 95 1010.2
20260906130047 21 50 0.0 20.9 0.00 0.08 0.00 94 1010.5
20260906124540 21 9 6.4 12.9 0.00 0.08 0.00 94 1010.3
20260906123040 21 136 0.0 6.4 0.00 0.08 0.00 95 1010.6
20260906121539 21 136 0.0 6.4 0.00 0.08 0.00 95 1010.7
20260906120047 21 136 3.2 6.4 0.00 0.08 0.00 95 1010.9
20260906114540 21 136 4.8 11.3 0.00 0.08 0.00 94 1010.9
20260906113035 21 67 0.0 4.8 0.00 0.08 0.00 94 1010.5
20260906111534 21 99 3.2 8.0 0.00 0.08 0.00 94 1009.8
20260906110040 21 5 3.2 11.3 0.00 0.08 0.00 94 1009.5
20260906104532 21 5 4.8 11.3 0.00 0.10 0.00 93 1009.6
20260906103032 21 121 0.0 12.9 0.00 0.10 0.00 94 1009.9
20260906101531 21 121 6.4 16.1 0.00 0.10 0.00 94 1010.0
20260906100031 21 140 14.5 24.1 0.00 0.10 0.00 94 1009.9
20260906094540 20 117 9.7 17.7 0.00 0.36 0.00 94 1009.7
20260906093027 20 114 8.0 14.5 0.00 0.36 0.00 94 1009.9
20260906091524 20 107 4.8 12.9 0.00 0.36 0.00 93 1010.2
20260906090026 20 106 4.8 11.3 0.00 0.36 0.00 93 1010.3
20260906084528 20 107 3.2 14.5 0.00 0.36 0.00 93 1010.4
20260906083021 20 94 3.2 9.7 0.00 0.36 0.00 92 1010.3
20260906081539 20 94 1.6 11.3 0.00 0.36 0.00 92 1010.0
20260906080018 21 105 3.2 12.9 0.00 0.36 0.00 91 1009.8
20260906074517 21 113 4.8 12.9 0.00 0.36 0.00 91 1009.4
20260906073017 21 117 4.8 14.5 0.00 0.36 0.00 91 1009.4
20260906071515 21 94 3.2 12.9 0.00 0.36 0.00 90 1009.5
20260906070014 21 94 3.2 11.3 0.00 0.36 0.00 90 1009.4
20260906064512 21 113 3.2 12.9 0.00 0.36 0.00 89 1009.5
20260906063011 21 113 3.2 11.3 0.00 0.36 0.00 89 1009.6
20260906061512 21 118 9.7 17.7 0.00 0.36 0.00 90 1009.7
20260906060006 21 117 1.6 11.3 0.00 0.36 0.00 90 1010.0
20260906054505 21 117 4.8 11.3 0.00 0.36 0.00 89 1010.0
20260906053002 21 117 6.4 16.1 0.00 0.36 0.00 90 1009.8
20260906051501 21 121 3.2 11.3 0.00 0.36 0.00 90 1009.7
20260906050118 22 121 3.2 14.5 0.00 0.36 0.00 90 1009.6
20260906044557 22 116 9.7 17.7 0.00 0.38 0.36 90 1009.8
20260906043058 22 121 16.1 22.5 0.00 0.38 0.36 89 1009.8
20260906041556 22 89 1.6 11.3 0.00 0.38 0.36 90 1009.0
20260906040121 22 83 3.2 12.9 0.00 0.38 0.36 90 1008.9
20260906034603 22 125 1.6 12.9 0.00 0.84 0.36 89 1008.8
20260906033057 22 138 1.6 6.4 0.00 0.84 0.36 90 1008.6
20260906031601 22 138 3.2 6.4 0.00 0.84 0.36 89 1008.5
20260906030054 22 138 6.4 9.7 0.00 0.84 0.36 89 1007.8
20260906024553 23 138 6.4 11.3 0.00 0.84 0.36 88 1007.9
20260906023054 23 192 6.4 16.1 0.00 0.84 0.36 87 1008.3
20260906021602 23 173 17.7 27.4 0.00 0.84 0.36 87 1008.5
20260906020058 23 190 12.9 22.5 0.00 0.84 0.36 87 1008.4
20260906014557 23 146 14.5 19.3 0.00 0.91 0.36 88 1008.3
20260906013051 23 163 8.0 19.3 0.05 0.91 0.36 88 1008.5
20260906011551 23 164 11.3 20.9 0.08 0.91 0.36 87 1008.6
20260906010054 23 121 6.4 14.5 0.08 0.91 0.36 89 1009.4
20260906004554 24 338 0.0 4.8 0.08 0.94 0.36 87 1010.6
20260906003048 25 340 0.0 4.8 0.03 0.89 0.30 84 1010.6
20260906001610 25 340 3.2 12.9 0.00 0.86 0.28 81 1011.3
20260906000055 25 316 6.4 16.1 0.00 0.86 0.28 79 1011.6
20260905234514 26 140 8.0 16.1 0.00 0.89 0.28 75 1010.4
20260905233052 26 123 8.0 14.5 0.00 0.89 0.28 72 1010.0
20260905231524 26 117 6.4 11.3 0.00 0.89 0.28 72 1009.6
20260905230059 27 117 0.0 4.8 0.00 0.89 0.28 73 1009.9
20260905224511 27 117 3.2 8.0 0.00 0.89 0.28 66 1009.3
20260905223029 28 116 6.4 16.1 0.00 0.89 0.28 63 1008.8
20260905221549 29 120 14.5 25.7 0.00 0.89 0.28 59 1007.9
20260905220006 30 114 17.7 25.7 0.00 0.89 0.28 58 1007.4
20260905214540 30 128 16.1 27.4 0.00 0.89 0.28 59 1008.0
20260905213111 30 124 16.1 24.1 0.00 0.89 0.28 58 1008.3
20260905211543 30 133 17.7 27.4 0.00 0.89 0.28 59 1008.6
20260905210018 30 129 17.7 27.4 0.00 0.89 0.28 59 1008.6